Location: Township of Marena
(38.1747°N, 99.6798°W)
Time: 03:11:53
(UTC+00:00)

PAYLOAD A - Pass Details

Date: 26 October 2020
Orbit: 692 x 831 km, 98.3° (Epoch: 27 November)

Event Time Altitude Azimuth Distance (km) Brightness Sun altitude
Rises 10:46:29 0° 9° (N) 3,227 7.4 -26.6°
Reaches altitude 10° 10:48:46 10° 6° (N) 2,319 6.6 -26.2°
Enters shadow 10:52:49 52° 335° (NNW) 977 4.3 -25.4°
